Погода в Ювяскюля

Финляндия     62°14′21″N   25°44′46″E
темп.,
°C
ветер,
м/с
пор.,
м/с
влажн.,
%
обл.,
%
осадки,
мм/ч
давл.,
гПа
погр.,
м
5 марта, пт
пт523:00−8ссз31083100 0.0 1010456
02:00−10сз378964 0.0 1010230
05:00−10сз27910 0.0 1011226
08:00−10ссз38910 0.0 1012304
11:00−6ссз378370 0.0 1013444
14:00−3ссз467161 0.0 1015929
17:00−5сз37816 0.0 1016335
20:00−8зсз25943 0.0 1017134
6 марта, сб
сб623:00−10з23940 0.0 101790
02:00−10юз37900 0.0 1015180
05:00−8юз4108876 0.0 1011327
08:00−5ююз5129188 0.1 1006629
11:00−3ююз61491100 1.2 1001803
14:000зюз61396100 2.6 995861
17:000зюз61398100 2.0 991996
20:00−6зсз51463100 3.3 9921486
7 марта, вс
вс723:00−8зсз7137933 0.4 9921522
02:00−10з4117947 0.4 990673
05:00−10з6138898 0.1 9871276
08:00−8ссз7128999 1.3 9871122
11:00−8ссв6977100 0.1 992969
14:00−7ссз477391 0.2 9971090
17:00−7с61185100 0.2 10011133
20:00−9ссв51286100 0.3 1005927
8 марта, пн
пн823:00−10ссв51287100 0.1 1009747
02:00−13с4109099 0.1 1013473
05:00−15с4108948 0.0 1015413
08:00−16с498424 0.0 1017398
11:00−12с37720 0.0 1018440
14:00−9с36660 0.0 1019656
17:00−10ссз12800 0.0 101930
20:00−12ююз128828 0.0 102021
9 марта, вт
вт923:00−12ююз3691100 0.0 1018196
02:00−10ююз51185100 0.0 1016423
05:00−7юз41094100 1.1 1012662
08:00−4з3995100 2.8 1011574
11:00−3ссз3489100 0.3 1011526
14:00−7всв3591100 0.4 1013313
17:00−9в3792100 0.3 1014386
20:00−12в4994100 0.3 1016410